FW4737 Weather Reports


time (UTC)temp
F
wind
direction
speed
knots
gust
knots
rain 1hr
in
rain 24hr
in
rain mn
in
humidity
%
barometer
mb
20260504050633 50 105 0.0 0.9 0.00 0.00 0.00 93 1018.4
20260504050130 49 111 0.0 0.0 0.00 0.00 0.00 92 1018.5
20260504045626 50 82 0.0 0.0 0.00 0.00 0.00 91 1018.6
20260504045341 50 126 0.0 0.0 0.00 0.00 0.00 92 1018.7
20260504044616 50 101 0.0 0.0 0.00 0.00 0.00 90 1018.3
20260504044113 51 98 0.0 0.0 0.00 0.00 0.00 89 1018.1
20260504043602 51 134 0.0 0.0 0.00 0.00 0.00 88 1018.3
20260504043019 51 106 0.0 0.0 0.00 0.00 0.00 88 1018.4
20260504042443 51 139 0.0 0.0 0.00 0.00 0.00 87 1018.2
20260504041919 51 112 0.0 0.0 0.00 0.00 0.00 88 1018.2
20260504041416 51 105 0.0 0.0 0.00 0.00 0.00 88 1018.2
20260504040914 51 70 0.0 0.0 0.00 0.00 0.00 88 1018.3
20260504040618 52 100 0.0 0.9 0.00 0.00 0.00 86 1018.5
20260504035831 52 98 0.9 0.9 0.00 0.00 0.00 87 1018.4
20260504035327 51 97 0.0 0.9 0.00 0.00 0.00 88 1018.3
20260504035045 50 77 0.0 0.0 0.00 0.00 0.00 90 1018.3
20260504034537 50 209 0.0 2.6 0.00 0.00 0.00 88 1018.2
20260504034034 51 115 0.0 0.0 0.00 0.00 0.00 89 1018.3
20260504033312 51 92 0.0 0.0 0.00 0.00 0.00 87 1018.4
20260504032806 51 325 0.0 0.9 0.00 0.00 0.00 88 1018.4
20260504032303 51 132 0.0 0.0 0.00 0.00 0.00 87 1018.2
20260504032018 51 133 0.0 0.0 0.00 0.00 0.00 84 1018.2
20260504031254 52 132 0.0 0.0 0.00 0.00 0.00 83 1018.1
20260504030751 53 133 0.0 0.0 0.00 0.00 0.00 82 1018.2
20260504030246 53 315 0.0 0.9 0.00 0.00 0.00 81 1018.4
20260504030001 54 85 0.9 1.7 0.00 0.00 0.00 84 1018.0
20260504025459 53 95 1.7 1.7 0.00 0.00 0.00 82 1018.2
20260504024732 53 93 0.0 0.0 0.00 0.00 0.00 80 1018.4
20260504024228 53 109 0.0 0.0 0.00 0.00 0.00 80 1018.2
20260504023723 53 47 0.0 0.0 0.00 0.00 0.00 78 1018.3
20260504023219 53 87 0.0 0.0 0.00 0.00 0.00 81 1018.2
20260504022934 53 88 0.0 0.0 0.00 0.00 0.00 80 1018.2
20260504022212 53 88 0.0 0.0 0.00 0.00 0.00 82 1017.9
20260504021708 53 88 0.0 0.0 0.00 0.00 0.00 80 1017.9
20260504021203 54 88 0.0 0.0 0.00 0.00 0.00 80 1017.9
20260504020659 54 88 0.0 0.0 0.00 0.00 0.00 80 1017.8
20260504020153 54 88 0.0 0.0 0.00 0.00 0.00 81 1017.8
20260504020133 55 88 0.0 0.0 0.00 0.00 0.00 82 1018.0
20260504015144 55 88 0.0 0.0 0.00 0.00 0.00 75 1017.8
20260504014640 56 88 0.0 0.0 0.00 0.00 0.00 78 1017.7
20260504014354 56 88 0.0 0.0 0.00 0.00 0.00 77 1017.6
20260504013632 57 88 0.0 0.0 0.00 0.00 0.00 78 1017.5
20260504013116 57 87 0.0 0.0 0.00 0.00 0.00 72 1017.3
20260504012607 57 88 0.0 0.0 0.00 0.00 0.00 73 1017.5
20260504012106 57 88 0.0 0.0 0.00 0.00 0.00 73 1017.1
20260504011538 58 88 0.0 0.0 0.00 0.00 0.00 74 1017.2
20260504011025 59 88 0.0 0.0 0.00 0.00 0.00 74 1017.4
20260504010518 60 88 0.0 0.0 0.00 0.00 0.00 74 1017.3
20260504005953 60 88 0.0 0.0 0.00 0.00 0.00 67 1017.3
20260504005636 61 88 0.0 0.0 0.00 0.00 0.00 69 1017.1
20260504004904 62 87 0.0 0.0 0.00 0.00 0.00 65 1017.0
20260504004325 62 86 0.0 0.0 0.00 0.00 0.00 62 1016.9
20260504003820 62 88 0.0 0.0 0.00 0.00 0.00 58 1016.8
20260504003316 63 88 0.0 0.0 0.00 0.00 0.00 62 1016.8
20260504002811 64 87 0.0 0.0 0.00 0.00 0.00 56 1016.6
20260504002307 64 88 0.0 0.0 0.00 0.00 0.00 57 1016.8
20260504001803 65 84 0.0 0.0 0.00 0.00 0.00 53 1016.7
20260504001258 66 84 0.0 0.0 0.00 0.00 0.00 52 1016.6
20260504000754 67 90 0.0 0.9 0.00 0.00 0.00 49 1016.5
20260504000251 67 64 0.9 0.9 0.00 0.00 0.00 50 1016.6
20260503235746 69 86 0.0 0.0 0.00 0.00 0.00 47 1016.7
20260503235243 70 93 0.0 0.0 0.00 0.00 0.00 45 1016.5
20260503234958 71 102 0.0 0.9 0.00 0.00 0.00 41 1016.8
20260503234234 73 162 0.0 0.0 0.00 0.00 0.00 39 1016.6
20260503233730 73 213 0.9 1.7 0.00 0.00 0.00 37 1016.7
20260503233227 74 279 0.0 0.9 0.00 0.00 0.00 38 1016.8
20260503232721 74 303 2.6 3.5 0.00 0.00 0.00 37 1016.7
20260503232217 74 223 0.9 1.7 0.00 0.00 0.00 38 1016.7
20260503231711 74 310 2.6 2.6 0.00 0.00 0.00 35 1016.7
20260503231208 75 309 1.7 2.6 0.00 0.00 0.00 36 1016.7
20260503230704 74 295 2.6 2.6 0.00 0.00 0.00 36 1016.6
20260503230158 74 19 0.9 2.6 0.00 0.00 0.00 38 1016.5
20260503225655 75 220 0.0 1.7 0.00 0.00 0.00 37 1016.7
20260503225149 76 298 1.7 3.5 0.00 0.00 0.00 38 1016.6
20260503224646 75 323 1.7 2.6 0.00 0.00 0.00 34 1016.6
20260503224141 74 221 2.6 2.6 0.00 0.00 0.00 35 1016.7
20260503223638 74 278 3.5 8.7 0.00 0.00 0.00 37 1016.7
20260503223133 74 237 1.7 6.1 0.00 0.00 0.00 36 1017.0
20260503222630 75 227 1.7 5.2 0.00 0.00 0.00 37 1016.6
20260503222124 76 336 0.0 1.7 0.00 0.00 0.00 39 1016.9
20260503222107 76 223 3.5 5.2 0.00 0.00 0.00 37 1016.7
20260503221339 77 270 6.1 7.8 0.00 0.00 0.00 35 1016.8
20260503220613 76 310 2.6 5.2 0.00 0.00 0.00 35 1016.8
20260503220108 76 263 2.6 5.2 0.00 0.00 0.00 33 1016.8
20260503215603 77 352 2.6 6.1 0.00 0.00 0.00 36 1016.7
20260503215314 76 295 0.9 5.2 0.00 0.00 0.00 37 1016.6
20260503214526 76 229 1.7 3.5 0.00 0.00 0.00 37 1016.8
20260503214003 75 312 2.6 7.0 0.00 0.00 0.00 38 1016.8
20260503213502 75 203 1.7 2.6 0.00 0.00 0.00 37 1016.7
20260503212947 76 264 2.6 5.2 0.00 0.00 0.00 35 1016.7
20260503212918 74 306 0.0 0.9 0.00 0.00 0.00 39 1017.1
20260503211930 75 256 5.2 7.0 0.00 0.00 0.00 37 1017.1
20260503211346 76 0 3.5 7.0 0.00 0.00 0.00 35 1017.0
20260503210842 76 313 2.6 5.2 0.00 0.00 0.00 34 1017.1
20260503210340 76 259 3.5 5.2 0.00 0.00 0.00 34 1017.2
20260503205825 76 294 0.9 6.1 0.00 0.00 0.00 39 1017.3
20260503205321 76 296 2.6 3.5 0.00 0.00 0.00 38 1017.3
20260503204816 77 214 2.6 6.1 0.00 0.00 0.00 36 1017.2
20260503204313 76 324 0.9 5.2 0.00 0.00 0.00 35 1017.6
20260503203809 76 280 5.2 7.0 0.00 0.00 0.00 39 1017.6
20260503203525 77 220 3.5 6.1 0.00 0.00 0.00 35 1017.6
20260503202800 75 254 3.5 7.8 0.00 0.00 0.00 36 1017.7
20260503202256 76 138 0.0 3.5 0.00 0.00 0.00 34 1017.8
20260503201752 75 36 5.2 6.1 0.00 0.00 0.00 35 1018.0
20260503201249 77 65 1.7 5.2 0.00 0.00 0.00 36 1017.8
20260503200745 77 270 2.6 2.6 0.00 0.00 0.00 34 1017.8
20260503200240 76 64 2.6 5.2 0.00 0.00 0.00 37 1017.9
20260503195736 75 23 1.7 6.1 0.00 0.00 0.00 35 1018.0
20260503195232 76 217 1.7 5.2 0.00 0.00 0.00 37 1017.9
20260503194728 76 197 2.6 7.0 0.00 0.00 0.00 34 1017.9
20260503194224 75 307 1.7 7.0 0.00 0.00 0.00 38 1018.3
20260503193938 75 291 1.7 3.5 0.00 0.00 0.00 35 1018.3
20260503193216 76 351 0.9 3.5 0.00 0.00 0.00 36 1018.5
20260503192712 75 198 1.7 2.6 0.00 0.00 0.00 40 1018.6
20260503192207 76 285 2.6 7.8 0.00 0.00 0.00 37 1018.6
20260503191704 76 220 3.5 9.6 0.00 0.00 0.00 37 1018.7
20260503191159 76 327 3.5 8.7 0.00 0.00 0.00 36 1018.8
20260503190655 76 16 1.7 3.5 0.00 0.00 0.00 37 1018.9
20260503190149 76 247 1.7 5.2 0.00 0.00 0.00 36 1018.9
20260503185645 75 191 1.7 5.2 0.00 0.00 0.00 34 1018.8
20260503185141 75 201 0.0 6.1 0.00 0.00 0.00 35 1019.2
20260503184638 75 342 0.9 7.8 0.00 0.00 0.00 36 1019.1
20260503184133 76 128 2.6 5.2 0.00 0.00 0.00 35 1019.2
20260503183848 76 282 1.7 5.2 0.00 0.00 0.00 35 1019.2
20260503183346 74 215 1.7 2.6 0.00 0.00 0.00 39 1019.5
20260503182620 75 277 2.6 5.2 0.00 0.00 0.00 37 1019.4
20260503182116 74 81 5.2 7.0 0.00 0.00 0.00 36 1019.6
20260503181612 75 15 1.7 7.0 0.00 0.00 0.00 37 1019.6
20260503181329 74 15 1.7 6.1 0.00 0.00 0.00 36 1019.6
20260503180603 75 284 4.3 6.1 0.00 0.00 0.00 34 1019.8
20260503180056 75 315 1.7 2.6 0.00 0.00 0.00 37 1019.7
20260503175545 74 339 2.6 5.2 0.00 0.00 0.00 38 1019.8
20260503175009 74 201 2.6 7.8 0.00 0.00 0.00 39 1019.7
20260503174712 74 38 3.5 5.2 0.00 0.00 0.00 37 1019.8
20260503173928 74 355 1.7 5.2 0.00 0.00 0.00 33 1019.8
20260503173842 73 168 0.9 1.7 0.00 0.00 0.00 34 1019.8
20260503172822 74 299 4.3 7.0 0.00 0.00 0.00 38 1019.8
20260503172318 73 247 1.7 7.8 0.00 0.00 0.00 34 1020.0
20260503171814 73 141 1.7 3.5 0.00 0.00 0.00 35 1020.0
20260503171312 73 102 3.5 7.0 0.00 0.00 0.00 37 1020.2
20260503171028 73 242 4.3 7.0 0.00 0.00 0.00 35 1020.1
20260503170303 74 204 0.0 3.5 0.00 0.00 0.00 36 1020.3
20260503150346 72 98 0.9 3.5 0.00 0.00 0.00 38 1021.3
20260503140118 66 78 0.0 1.7 0.00 0.00 0.00 59 1020.7
20260503131253 57 158 0.0 0.9 0.00 0.00 0.00 81 1020.6
20260503130749 56 294 0.9 0.9 0.00 0.00 0.00 83 1020.6
20260503130508 55 105 0.0 0.0 0.00 0.00 0.00 92 1020.5
20260503120156 45 128 0.0 0.0 0.00 0.00 0.00 98 1020.3
20260503110433 42 110 0.0 0.0 0.00 0.00 0.00 98 1020.0
20260503100243 41 109 0.0 0.0 0.00 0.00 0.00 97 1019.4
20260503090154 42 108 0.0 0.0 0.00 0.00 0.00 97 1018.9
20260503081618 43 84 0.0 0.0 0.00 0.00 0.00 97 1019.0
20260503081115 43 111 0.0 0.0 0.00 0.00 0.00 97 1019.0
20260503080610 43 106 0.0 0.0 0.00 0.00 0.00 97 1019.0
20260503080106 43 112 0.0 0.0 0.00 0.00 0.00 97 1018.9
20260503072418 43 101 0.0 0.0 0.00 0.00 0.00 96 1018.2
20260503071842 43 101 0.0 0.0 0.00 0.00 0.00 96 1018.4
20260503071323 44 101 0.0 0.0 0.00 0.00 0.00 96 1018.6
20260503070819 44 101 0.0 0.0 0.00 0.00 0.00 96 1018.5
20260503070314 45 101 0.0 0.0 0.00 0.00 0.00 96 1018.5
20260503060224 46 101 0.0 0.0 0.00 0.00 0.00 95 1018.1
20260503054713 46 101 0.0 0.0 0.00 0.00 0.00 95 1018.2
20260503054208 46 101 0.0 0.0 0.00 0.00 0.00 94 1018.1
20260503053705 46 101 0.0 0.0 0.00 0.00 0.00 92 1018.1
20260503053201 47 101 0.0 0.0 0.00 0.00 0.00 92 1018.1
20260503052657 48 101 0.0 0.0 0.00 0.00 0.00 92 1017.9